Location: Gazon
(48.1318°N, 1.2708°W)
Time: 02:14:34
(UTC+00:00)

Cosmos 2263 Rocket - Pass Details

Date: 18 September 2020
Orbit: 822 x 850 km, 71.0° (Epoch: 29 October)

Event Time Altitude Azimuth Distance (km) Brightness Sun altitude
Rises 19:30:19 0° 218° (SW) 3,346 5.6 -13.9°
Reaches altitude 10° 19:32:46 10° 221° (SW) 2,419 4.9 -14.3°
Maximum altitude 19:38:14 60° 302° (WNW) 943 2.8 -15.1°
Drops below altitude 10° 19:43:47 10° 22° (NNE) 2,447 4.6 -16.0°
Sets 19:46:17 0° 26° (NNE) 3,389 5.3 -16.4°
